{"data":{"norad_id":43234,"epoch":"2026-09-19T19:12:02.510784Z","epoch_age_seconds":78817,"freshness":"FRESH","line1":"1 43234U 18024D   26262.80002906 -.00000027  00000+0  00000+0 0  9992","line2":"2 43234   0.0562 341.9879 0000846 127.2625 250.7609  5.00115709155788","mean_motion":5.00115709,"eccentricity":8.46e-5,"inclination_deg":0.0562,"raan_deg":341.9879,"arg_perigee_deg":127.2625,"mean_anomaly_deg":250.7609,"bstar":0,"rev_number":15578,"period_min":287.93336703607,"perigee_km":8064.6642297879,"apogee_km":8067.1081585124,"semimajor_km":14444.02319415,"source":"CELESTRAK","updated_at":"2026-09-20T09:00:35.686141Z"}}